Regional Weather Roundup
Issued by NWS Northern Indiana

Home | Current Version | Previous Version | Graphics & Text | Print | Product List | Glossary On
Versions: 1 2 3 4 5 6 7 8 9 10 11 12 13 14 15 16 17 18 19 20 21 22 23 24 25 26 27 28 29 30 31 32 33 34 35 36 37 38 39 40 41 42 43 44 45 46 47 48 49 50
000
ASUS43 KIWX 181000
RWRIWX

KIWX WEATHER ROUNDUP
NATIONAL WEATHER SERVICE NORTHERN INDIANA
600 AM EDT SAT APR 18 2015

NOTE: "FAIR" INDICATES FEW OR NO CLOUDS BELOW 12,000 FEET WITH NO
SIGNIFICANT WEATHER AND/OR OBSTRUCTIONS TO VISIBILITY.

* THESE STATIONS ARE NOT UNDER NWS QUALITY CONTROL. THEY ALSO MAY NOT
  REPORT WEATHER SUCH AS PRECIPITATION OR FOG.

INZ001>027-181100-
NORTHERN INDIANA

CITY           SKY/WX    TMP DP  RH WIND       PRES   REMARKS
GARY*          PTCLDY    61  43  51 SW5       30.02F
SOUTH BEND     CLEAR     55  44  66 CALM      30.04R
GOSHEN         MOCLDY    55  45  68 CALM      30.03S
ANGOLA*        PTCLDY    50  46  87 CALM      30.04R
FORT WAYNE     CLEAR     54  45  71 CALM      30.04S
PERU/GRISSOM   CLEAR     55  46  71 CALM      30.02F

$$
INZ028>050-181100-
CENTRAL INDIANA

CITY           SKY/WX    TMP DP  RH WIND       PRES   REMARKS
LAFAYETTE      CLEAR     49  46  90 CALM      30.02F
KOKOMO*        CLEAR     48  45  87 CALM      30.04S
MUNCIE*        CLEAR     51  44  77 CALM      30.05F
INDIANAPOLIS   CLEAR     54  44  69 NE3       30.02F

$$
MIZ043>046-050>051-056>058-064>065-071>073-077>080-181100-
SOUTHWEST LOWER MICHIGAN

CITY           SKY/WX    TMP DP  RH WIND       PRES   REMARKS
BATTLE CREEK   CLEAR     55  42  61 SW5       30.03S
BENTON HARBOR  PTCLDY    58  47  66 SW9       30.02R
COLDWATER*     PTCLDY    49  46  87 CALM      30.03S
HILLSDALE*     MOCLDY    56  42  61 CALM      30.04S
HOLLAND        PTCLDY    56  44  64 W6        30.02R
GRAND RAPIDS   MOCLDY    46  41  82 N6        30.02R
KALAMAZOO      MOCLDY    50  44  80 CALM      30.03R
STURGIS*       PTCLDY    54  43  66 CALM      30.03S
THREE RIVERS*  FAIR      51  45  80 S3        30.03S

$$
OHZ001>008-015>018-024>025-181100-
NORTHWEST OHIO

CITY           SKY/WX    TMP DP  RH WIND       PRES   REMARKS
DEFIANCE       MOCLDY    50  44  80 CALM      30.04S
FINDLAY        CLEAR     53  41  63 SW5       30.03S
TOLEDO EXPRESS MOCLDY    53  43  68 W6        30.03R
TOLEDO METCALF PTCLDY    50  40  68 SW5       30.04R
LIMA           CLEAR     55  41  59 SW3       30.04F

$$
AND FOR LAKE MICHIGAN COASTAL AND OPEN LAKE BUOY OBSERVATIONS

STATION/POSITION TEMP    WIND        PRES    VSBY  WAVE
                 AIR SEA DIR/SP/G                  HT/PER
                 (F)     (DEG/KT/KT) (MB)    (MI)  (FT/S)
CALUMET HARBOR    63     220/  4/  6   N/A
MICHIGAN CITY     64     200/  9/ 10   N/A
BURNS HARBOR      62     210/  9/ 13 1016.9S
SAINT JOSEPH      60     180/  8/ 13 1016.6F
MICHIGAN CITY     52 47                N/A           0

$$
&&



USA.gov is the U.S. government's official web portal to all federal, state and local government web resources and services.